Hereford, TX

4:57 AM CDT on August 17, 2017 (GMT -0500)
Hereford Municipal

Weather History for KHRX - March, 2013

Change the Weather History Date:

Monday, March 4, 2013

  Actual Average (KCVN) Record (KCVN)
Temperature  
Mean Temperature 54 °F -  
Max Temperature 73 °F 58 °F 82 °F (1916)
Min Temperature 35 °F 27 °F 8 °F (1989)
Degree Days  
Heating Degree Days 11    
Growing Degree Days 4 (Base 50)    
Moisture  
Dew Point 26 °F    
Average Humidity 37    
Maximum Humidity 75    
Minimum Humidity 14    
Precipitation  
Precipitation 0.00 in - - ()
Sea Level Pressure  
Sea Level Pressure 29.79 in    
Wind  
Wind Speed - (North)    
Max Wind Speed -    
Max Gust Speed -    
Visibility 10 miles    
Events      
Averages and records for this station are not official NWS values.
T = Trace of Precipitation, MM = Missing Value Source: NWS Daily Summary

Daily Weather History Graph

Daily Weather History Graph

Search for Another Location

Airport or City:

Trip Planner

Search our weather history database for the weather conditions in past years. The results will help you decide how hot, cold, wet, or windy it might be!

Date:

Astronomy

Mar. 04, 2013 Rise Set
Actual Time 7:14 AM CST 6:48 PM CST
Civil Twilight 6:49 AM CST 7:13 PM CST
Nautical Twilight 6:19 AM CST 7:42 PM CST
Astronomical Twilight 5:50 AM CST 8:11 PM CST
Moon 1:16 AM CST (3/4) 11:41 AM CST (3/4)
Length of Visible Light 12h 24m
Length of Day
11h 33m
Waning Gibbous, 52% of the Moon is Illuminated
Mar 4
Waning Gibbous
Mar 4
Last Quarter
Mar 11
New
Mar 19
First Quarter
Mar 27
Full

Hourly Weather History & Observations

Time (CST) Temp. Dew Point Humidity Pressure Visibility Wind Dir Wind Speed Gust Speed Precip Events Conditions
12:15 AM 53.6 °F 21.2 °F 28% 29.71 in 10.0 mi North - - N/A   Clear
12:35 AM 53.6 °F 21.2 °F 28% 29.71 in 10.0 mi North - - N/A   Clear
12:55 AM 53.6 °F 21.2 °F 28% 29.71 in 10.0 mi North - - N/A   Clear
1:15 AM 51.8 °F 23.0 °F 33% 29.72 in 10.0 mi North - - N/A   Clear
1:35 AM 51.8 °F 23.0 °F 33% 29.74 in 10.0 mi North - - N/A   Clear
1:55 AM 50.0 °F 26.6 °F 40% 29.75 in 10.0 mi North - - N/A   Clear
2:15 AM 50.0 °F 26.6 °F 40% 29.75 in 10.0 mi North - - N/A   Clear
2:35 AM 50.0 °F 28.4 °F 43% 29.75 in 10.0 mi North - - N/A   Clear
2:55 AM 48.2 °F 28.4 °F 46% 29.74 in 10.0 mi North - - N/A   Clear
3:15 AM 44.6 °F 28.4 °F 53% 29.74 in 10.0 mi North - - N/A   Clear
3:35 AM 50.0 °F 28.4 °F 43% 29.74 in 10.0 mi North - - N/A   Clear
3:55 AM 46.4 °F 30.2 °F 53% 29.73 in 10.0 mi North - - N/A   Clear
4:15 AM 46.4 °F 30.2 °F 53% 29.73 in 10.0 mi North - - N/A   Clear
4:35 AM 46.4 °F 30.2 °F 53% 29.73 in 10.0 mi North - - N/A   Clear
4:55 AM 44.6 °F 30.2 °F 57% 29.72 in 10.0 mi North - - N/A   Clear
5:15 AM 44.6 °F 30.2 °F 57% 29.73 in 10.0 mi North - - N/A   Clear
5:55 AM 46.4 °F 30.2 °F 53% 29.75 in 10.0 mi North - - N/A   Clear
6:15 AM 50.0 °F 28.4 °F 43% 29.75 in 10.0 mi North - - N/A   Clear
6:35 AM 50.0 °F 28.4 °F 43% 29.76 in 10.0 mi North - - N/A   Clear
6:55 AM 51.8 °F 26.6 °F 38% 29.76 in 10.0 mi North - - N/A   Clear
7:15 AM 50.0 °F 26.6 °F 40% 29.76 in 10.0 mi North - - N/A   Clear
7:35 AM 50.0 °F 26.6 °F 40% 29.77 in 10.0 mi North - - N/A   Clear
7:55 AM 50.0 °F 28.4 °F 43% 29.77 in 10.0 mi North - - N/A   Clear
8:15 AM 50.0 °F 28.4 °F 43% 29.77 in 10.0 mi North - - N/A   Clear
8:35 AM 51.8 °F 28.4 °F 41% 29.78 in 10.0 mi North - - N/A   Clear
8:55 AM 53.6 °F 28.4 °F 38% 29.79 in 10.0 mi North - - N/A   Clear
9:15 AM 55.4 °F 28.4 °F 36% 29.79 in 10.0 mi North - - N/A   Clear
9:35 AM 59.0 °F 30.2 °F 34% 29.78 in 10.0 mi North - - N/A   Clear
9:55 AM 62.6 °F 28.4 °F 27% 29.78 in 10.0 mi North - - N/A   Clear
10:15 AM 64.4 °F 23.0 °F 21% 29.78 in 10.0 mi North - - N/A   Clear
10:35 AM 66.2 °F 23.0 °F 19% 29.77 in 10.0 mi North - - N/A   Clear
10:55 AM 68.0 °F 23.0 °F 18% 29.77 in 10.0 mi North - - N/A   Clear
11:15 AM 68.0 °F 23.0 °F 18% 29.76 in 10.0 mi North - - N/A   Clear
11:55 AM 69.8 °F 21.2 °F 16% 29.76 in 10.0 mi North - - N/A   Clear
12:15 PM 69.8 °F 21.2 °F 16% 29.76 in 10.0 mi North - - N/A   Clear
12:55 PM 69.8 °F 21.2 °F 16% 29.74 in 10.0 mi North - - N/A   Clear
1:15 PM 71.6 °F 21.2 °F 15% 29.72 in 10.0 mi North - - N/A   Clear
1:35 PM 71.6 °F 21.2 °F 15% 29.71 in 10.0 mi North - - N/A   Clear
1:55 PM 71.6 °F 21.2 °F 15% 29.70 in 10.0 mi North - - N/A   Clear
2:15 PM 73.4 °F 21.2 °F 14% 29.69 in 10.0 mi North - - N/A   Clear
2:35 PM 71.6 °F 21.2 °F 15% 29.68 in 10.0 mi North - - N/A   Clear
2:55 PM 71.6 °F 21.2 °F 15% 29.68 in 10.0 mi North - - N/A   Clear
3:15 PM 71.6 °F 21.2 °F 15% 29.67 in 10.0 mi North - - N/A   Clear
3:35 PM 71.6 °F 21.2 °F 15% 29.67 in 10.0 mi North - - N/A   Clear
3:55 PM 71.6 °F 21.2 °F 15% 29.68 in 10.0 mi North - - N/A   Clear
4:15 PM 71.6 °F 19.4 °F 14% 29.68 in 10.0 mi North - - N/A   Clear
4:35 PM 71.6 °F 19.4 °F 14% 29.69 in 10.0 mi North - - N/A   Clear
4:55 PM 71.6 °F 19.4 °F 14% 29.69 in 10.0 mi North - - N/A   Clear
5:15 PM 69.8 °F 19.4 °F 15% 29.70 in 10.0 mi North - - N/A   Clear
5:35 PM 69.8 °F 19.4 °F 15% 29.70 in 10.0 mi North - - N/A   Clear
5:55 PM 68.0 °F 19.4 °F 16% 29.71 in 10.0 mi North - - N/A   Clear
6:15 PM 66.2 °F 19.4 °F 17% 29.71 in 10.0 mi North - - N/A   Clear
6:35 PM 62.6 °F 32.0 °F 32% 29.75 in 10.0 mi North - - N/A   Clear
6:55 PM 59.0 °F 33.8 °F 39% 29.78 in 10.0 mi North - - N/A   Clear
7:15 PM 55.4 °F 35.6 °F 47% 29.80 in 10.0 mi North - - N/A   Clear
7:35 PM 53.6 °F 35.6 °F 51% 29.81 in 10.0 mi North - - N/A   Scattered Clouds
7:55 PM 51.8 °F 35.6 °F 54% 29.84 in 10.0 mi North - - N/A   Scattered Clouds
8:35 PM 48.2 °F 33.8 °F 58% 29.91 in 10.0 mi North - - N/A   Clear
8:55 PM 46.4 °F 32.0 °F 57% 29.92 in 10.0 mi North - - N/A   Clear
9:15 PM 46.4 °F 32.0 °F 57% 29.98 in 10.0 mi North - - N/A   Clear
9:35 PM 41.0 °F 30.2 °F 65% 30.04 in 10.0 mi North - - N/A   Mostly Cloudy
9:55 PM 37.4 °F 30.2 °F 75% 30.08 in 10.0 mi North - - N/A   Overcast
10:15 PM 37.4 °F 30.2 °F 75% 30.11 in 10.0 mi North - - N/A   Overcast
10:35 PM 37.4 °F 28.4 °F 70% 30.13 in 10.0 mi North - - N/A   Overcast
10:55 PM 37.4 °F 26.6 °F 65% 30.15 in 10.0 mi North - - N/A   Overcast
11:15 PM 35.6 °F 26.6 °F 70% 30.17 in 10.0 mi North - - N/A   Overcast
11:35 PM 35.6 °F 26.6 °F 70% 30.18 in 10.0 mi North - - N/A   Overcast
11:55 PM 35.6 °F 26.6 °F 70% 30.19 in 10.0 mi North - - N/A   Overcast